This is the latest recevied weather packets stored in our database for station/object W0RMT-13. If no packets are shown the sender has not sent any weather packets the latest 10 day(s).
| Time | Temp. | Humidity | Pressure | Rain* | Wind** | Luminosity | Snow |
|---|---|---|---|---|---|---|---|
| 1777942224 | 14.44° C | 56% | 1009.5 hPa | 0 mm | - | 2 W/m² | - |
| 1777941544 | 14.44° C | 55% | 1009.8 hPa | 0 mm | - | 6 W/m² | - |
| 1777940882 | 15° C | 54% | 1009.8 hPa | 0 mm | - | 20 W/m² | - |
| 1777940192 | 15° C | 54% | 1009.5 hPa | 0 mm | - | 45 W/m² | - |
| 1777939531 | 15° C | 51% | 1009.5 hPa | 0 mm | - | 68 W/m² | - |
| 1777938844 | 15.56° C | 53% | 1009 hPa | 0 mm | - | 58 W/m² | - |
| 1777938169 | 15.56° C | 51% | 1009.5 hPa | 0 mm | - | 67 W/m² | - |
| 1777937492 | 15.56° C | 47% | 1009 hPa | 0 mm | - | 73 W/m² | - |
| 1777936878 | 15.56° C | 48% | 1009 hPa | 0 mm | - | 82 W/m² | - |
| 1777936230 | 15.56° C | 49% | 1009.5 hPa | 0 mm | - | 81 W/m² | - |
| 1777935612 | 15.56° C | 51% | 1009.5 hPa | 0 mm | - | 115 W/m² | - |
| 1777934983 | 16.11° C | 50% | 1009.5 hPa | 0 mm | - | 101 W/m² | - |
| 1777934281 | 16.11° C | 45% | 1009.5 hPa | 0 mm | - | 48 W/m² | - |
| 1777933591 | 16.11° C | 42% | 1009.5 hPa | 0 mm | - | 37 W/m² | - |
| 1777932905 | 16.67° C | 43% | 1009 hPa | 0 mm | - | 43 W/m² | - |
| 1777932348 | 16.67° C | 43% | 1008.2 hPa | 0 mm | - | 66 W/m² | - |
| 1777931586 | 17.22° C | 43% | 1007.8 hPa | 0 mm | - | 101 W/m² | - |
| 1777930933 | 18.33° C | 42% | 1008.2 hPa | 0 mm | - | 140 W/m² | - |
| 1777930285 | 18.33° C | 39% | 1007.8 hPa | 0 mm | - | 137 W/m² | - |
| 1777929652 | 18.89° C | 35% | 1008.2 hPa | 0 mm | - | 291 W/m² | - |
| 1777928963 | 19.44° C | 37% | 1008.2 hPa | 0 mm | - | 544 W/m² | - |
| 1777928346 | 20.56° C | 33% | 1008.2 hPa | 0 mm | - | 128 W/m² | - |
| 1777927632 | 21.11° C | 30% | 1007.8 hPa | 0 mm | - | 149 W/m² | - |
| 1777927018 | 20.56° C | 30% | 1007.8 hPa | 0 mm | - | 274 W/m² | - |
| 1777926410 | 19.44° C | 31% | 1007.8 hPa | 0 mm | - | 421 W/m² | - |
* Rain latest hour (hover to see other rain measurements)
** Current wind speed in m/s (hover to see current wind gust speed)